Dewpoint
62 65 69 70 71 70 71 71 73 73 72 72 71 70 69 68 67 69 70 70 71 69 67 67 67 67 67 67 68 67 66 66 67 68 69 69 69 68 68 70 69 67 70
63 65 68 69 70 71 71 73 72 73 73 72 71 70 70 68 67 68 69 70 69 69 68 67 67 67 67 67 68 67 67 67 67 67 68 67 68 69 68 70 70 69 69
59 63 65 68 70 70 72 72 73 72 72 72 72 71 69 68 67 69 69 69 69 68 68 70 70 68 68 68 68 68 68 67 68 68 67 64 65 68 68 70 70 70 69
60 62 65 68 69 70 72 72 73 72 72 72 72 71 70 68 67 69 69 69 69 67 68 69 69 69 68 67 68 67 67 68 68 67 61 62 63 67 68 68 68 69 69
60 62 65 67 68 70 72 72 71 71 72 72 71 71 71 69 67 68 68 70 69 69 70 69 69 69 69 68 67 66 67 68 67 63 60 61 61 64 67 68 68 69 69
56 58 62 67 68 69 71 71 71 71 71 71 71 71 71 68 68 69 69 69 69 69 69 68 68 69 69 69 68 67 67 68 66 60 60 62 60 64 66 66 67 68 68
54 55 57 67 68 68 70 71 71 71 71 71 70 70 70 70 69 68 69 69 69 69 68 67 67 68 69 68 67 66 67 66 57 59 61 61 60 64 64 65 66 68 68
52 53 55 62 69 69 70 70 70 70 70 70 70 69 69 70 69 68 69 69 69 68 68 66 65 67 68 68 66 66 66 66 58 59 61 62 64 63 64 64 65 66 67
50 51 53 55 61 67 68 69 69 69 69 70 69 69 69 69 69 68 69 68 68 68 68 67 65 66 68 67 66 66 65 65 59 59 59 62 65 64 64 64 65 65 65
49 50 50 53 55 60 63 65 66 66 65 66 67 67 67 66 65 65 67 68 68 68 68 68 67 65 65 66 66 65 64 64 59 61 61 61 62 64 64 64 64 64 65
48 48 49 50 52 54 57 60 61 61 62 63 62 61 61 63 61 60 63 66 68 68 68 67 66 66 64 63 63 63 62 59 62 62 64 66 64 64 65 64 64 64 64
46 47 48 49 50 52 54 56 56 56 58 58 58 58 57 56 58 57 58 63 65 64 67 67 66 65 63 60 60 61 58 57 63 64 65 67 65 65 65 65 65 64 64
46 46 47 48 48 50 51 52 54 54 55 55 57 57 56 55 53 54 54 54 55 56 61 64 63 61 61 62 59 58 58 56 63 64 65 66 66 65 65 65 65 65 64
45 45 46 47 48 48 49 48 48 51 52 53 53 55 54 55 53 52 51 52 51 52 54 55 56 56 57 59 62 62 58 56 61 63 64 65 67 65 65 65 65 65 65
43 44 45 46 46 47 47 47 46 46 47 50 52 53 54 52 52 53 53 51 49 51 51 53 54 55 55 54 59 60 58 60 60 62 64 63 66 67 66 65 64 65 64
41 42 44 45 45 46 46 45 46 46 45 46 49 50 52 52 51 50 50 49 48 48 53 51 53 55 55 54 52 52 50 52 56 59 62 62 63 63 66 66 66 66 67
38 40 42 43 43 44 44 45 44 45 45 44 45 47 50 50 50 50 49 49 48 46 48 53 54 54 53 53 51 50 50 47 46 51 55 56 59 62 64 65 65 65 65
35 38 39 41 41 42 42 43 43 43 43 44 45 46 46 48 49 49 48 47 48 47 46 46 47 54 52 52 51 50 48 47 43 42 46 51 54 56 61 64 65 65 65
33 35 37 39 39 41 41 41 42 42 42 43 44 45 45 46 47 47 47 47 48 48 47 46 45 47 49 50 52 52 48 47 46 43 43 49 49 50 56 61 61 62 65
32 34 35 38 39 39 41 41 41 41 42 42 43 43 44 45 46 46 46 46 47 47 48 48 47 45 45 45 47 49 50 49 46 43 41 41 43 50 55 58 59 57 59
30 32 32 33 36 39 39 40 40 39 41 41 42 41 42 43 44 44 44 44 45 44 44 45 47 47 45 45 44 45 45 42 42 44 42 40 42 46 49 51 52 54 54
28 29 30 28 29 31 36 39 40 40 40 40 40 40 40 41 42 42 43 42 43 43 42 42 43 45 44 44 45 44 45 46 44 38 38 39 42 44 44 46 47 47 47
26 27 27 29 29 29 29 35 37 38 39 39 39 38 38 38 40 41 41 41 42 42 41 41 42 43 43 43 44 46 43 45 44 45 40 39 38 40 44 45 43 45 45
29 28 29 29 28 27 28 31 31 32 31 32 35 37 35 36 37 39 40 40 40 41 40 41 41 42 43 41 43 43 43 43 44 43 43 42 41 38 39 39 42 39 37
30 32 31 31 31 31 29 27 28 28 30 31 31 31 31 31 32 34 37 38 39 40 40 40 40 40 41 41 41 41 42 42 42 42 41 42 43 42 42 41 40 41 36
26 27 28 28 30 32 31 27 26 26 26 27 28 27 28 30 30 30 31 32 34 36 37 39 40 40 40 40 40 40 40 40 40 41 41 40 41 41 42 42 42 42 44
Lifted_Index
1 1 -0 -1 -2 -2 -2 -2 -2 -2 -2 -2 -2 -1 -0 1 1 1 0 0 0 1 2 3 3 3 3 4 4 4 5 5 4 4 3 3 3 3 2 1 1 1 1
1 1 0 -1 -2 -2 -3 -3 -3 -2 -2 -2 -2 -1 -0 1 1 1 1 1 1 2 2 2 2 3 3 3 4 4 4 4 4 4 4 4 3 3 2 2 1 1 1
0 0 -0 -1 -2 -3 -3 -3 -3 -2 -2 -2 -2 -2 -1 0 1 1 1 1 2 2 2 2 2 2 3 3 3 3 4 4 4 5 5 5 4 3 3 2 2 1 1
0 0 -0 -1 -2 -3 -3 -3 -3 -2 -2 -2 -2 -2 -1 -0 0 0 0 1 2 2 2 2 2 2 3 3 3 4 4 4 4 5 6 6 5 4 3 3 2 2 2
0 0 -0 -1 -2 -3 -3 -3 -2 -2 -2 -2 -2 -2 -1 -0 0 0 0 1 2 2 2 2 2 2 3 3 3 4 4 4 5 6 6 6 6 5 4 4 3 3 3
1 0 -0 -1 -2 -2 -3 -3 -2 -2 -2 -2 -2 -1 -1 -0 0 0 0 1 1 2 2 3 3 3 3 3 3 4 5 5 6 6 6 7 6 6 5 5 4 3 3
1 0 -0 -1 -2 -2 -3 -3 -2 -2 -2 -2 -1 -1 -1 -0 0 0 1 1 1 1 2 3 4 3 3 3 4 5 5 6 6 6 6 7 6 6 6 6 5 4 4
1 0 -0 -1 -2 -2 -2 -3 -2 -2 -2 -2 -1 -1 -1 -0 -0 0 1 1 1 1 2 3 4 4 3 4 4 5 6 6 6 6 6 6 6 6 6 6 6 5 5
1 0 -0 -1 -1 -1 -1 -2 -2 -2 -2 -1 -1 -1 -0 -0 0 0 0 1 1 1 2 3 4 4 4 4 5 6 6 6 6 6 6 6 6 6 6 6 6 6 6
1 0 -0 -1 -1 -1 -1 -1 -1 -1 -1 -1 -1 -0 -0 0 1 1 1 1 1 1 1 2 3 4 4 5 6 6 7 6 6 6 6 6 6 6 6 6 6 6 6
0 0 -0 -1 -1 -1 -0 -0 -1 -1 -1 -1 -0 -0 0 1 2 2 2 1 1 1 1 2 3 4 5 6 7 7 7 6 5 5 5 5 5 5 5 6 6 6 6
0 0 -0 -0 -1 -1 -0 -0 -0 -0 -0 -0 -0 -0 0 1 2 3 2 2 2 2 2 2 3 4 4 5 6 6 6 5 4 4 4 4 4 4 4 5 5 5 6
0 0 -0 -0 -0 -0 0 0 1 1 1 1 1 0 0 1 2 3 3 3 3 3 2 3 3 4 3 4 4 4 5 5 4 3 3 3 3 4 4 4 4 5 5
1 1 0 0 0 0 0 1 1 1 2 2 2 1 1 1 2 2 3 3 4 4 3 3 3 3 3 3 3 3 4 4 4 3 3 3 3 3 3 3 3 4 4
2 1 1 1 0 0 0 1 1 1 1 2 2 2 2 2 2 2 3 3 4 4 4 3 3 3 3 3 2 3 3 4 4 4 4 3 3 3 3 3 3 3 3
4 3 2 1 1 1 1 1 1 1 1 1 2 2 2 3 3 4 4 4 4 4 4 4 3 3 3 3 3 3 3 4 4 4 4 4 4 4 3 2 2 2 2
5 4 2 2 2 2 2 2 2 2 1 1 2 2 3 4 4 5 5 5 4 4 4 4 4 4 4 3 3 3 3 4 4 4 4 4 4 4 4 3 2 2 2
6 5 3 3 3 2 2 2 2 2 2 2 2 3 4 5 6 6 5 5 5 5 4 4 4 4 4 3 3 3 3 3 4 4 4 4 4 4 4 4 3 3 3
7 6 4 4 4 4 4 3 3 3 3 3 3 4 5 5 6 6 6 6 6 5 5 5 4 4 4 3 3 3 3 3 3 3 4 4 4 4 4 4 4 3 3
8 7 6 5 5 5 5 4 3 3 3 3 3 4 4 5 5 6 6 6 6 6 6 5 5 4 4 4 4 3 3 3 3 3 3 4 4 4 4 3 3 3 3
9 8 7 6 6 6 5 4 4 3 4 4 4 4 5 5 5 5 6 6 6 6 6 5 5 5 4 4 4 4 3 3 3 3 3 3 3 3 3 3 3 3 3
9 8 8 7 8 8 7 6 5 5 4 4 5 5 5 5 4 4 5 6 6 6 6 6 6 5 5 5 4 4 4 3 4 4 4 3 3 3 3 3 3 3 3
9 9 10 10 11 11 11 9 7 6 5 5 5 5 5 5 5 5 5 5 6 6 6 6 7 6 5 5 5 4 4 4 4 4 4 4 4 4 4 4 4 4 3
11 11 12 13 13 14 14 12 10 7 6 6 7 6 6 6 6 6 5 5 5 5 6 6 6 6 5 5 5 5 5 5 5 5 5 5 5 5 5 5 5 5 5
13 13 14 14 15 15 15 14 12 10 9 9 10 9 9 8 8 8 7 6 5 5 6 6 6 6 6 5 5 6 6 5 5 5 5 5 6 6 6 7 7 7 7
14 14 14 15 15 16 16 15 14 13 12 11 11 11 11 10 10 9 8 7 6 6 6 6 6 6 6 5 5 6 6 5 5 5 5 5 6 6 7 8 9 9 9